User: anonymous   Login
Location: Bílinka
(49.3579°N, 14.3767°E)
Time: 19:45:51
(UTC+00:00)
Language:

Cosmos 2228 - Orbit

View from above orbital plane
View from above orbital plane
View from above satellite
View from above satellite

Ground track
Ground track

The orbit data is extracted from the following two-line orbital elements,

1 22286U 92094A   24113.67309315  .00005032  00000-0  49317-3 0  9996
2 22286  82.5207 171.6696 0021398  86.9843 273.3825 14.91905266673574
Epoch (UTC): 22 April 2024 16:09:15
Eccentricity: 0.0021398
inclination: 82.5207°
perigee height: 577 km
apogee height: 607 km
right ascension of ascending node: 171.6696°
argument of perigee: 86.9843°
revolutions per day: 14.91905266
mean anomaly at epoch: 273.3825°
orbit number at epoch: 67357

The dashed part of the orbit path shows where the satellite is in the earth's shadow,  

DLR